#timestamp,LO_Frequency,Hit,StdDev 
1584345615.6,286046990.6,P
1584345635.4,286046990.6,P
1584345655.2,286046989.6,P
1584345675.1,286046988.0,Y
1584345676.0,286046988.0,P
1584345695.8,286047000.6,N
1584345715.7,286047002.5,N
1584345735.5,286046998.3,N
1584345755.3,286046995.2,N
1584345775.2,286046995.7,N
1584345795.0,286046993.9,N
1584345795.9,286046993.9,N
1584345815.7,286046994.3,N
1584345835.6,286046993.0,N
1584345855.4,286046991.7,N
1584345875.3,286046987.2,Y
1584345895.1,286046999.3,P
1584345896.0,286046999.3,N
1584345915.8,286046997.8,N
1584345935.7,286046994.2,Y
1584345955.5,286046992.8,P
1584345975.4,286046987.1,P
1584345995.2,286046987.5,N
1584346015.0,286046985.8,Y
1584346015.9,286046985.8,P
1584346035.8,286046992.7,N
1584346055.6,286046993.1,N
1584346075.4,286046987.0,Y
1584346095.3,286046994.4,P
1584346115.1,286046995.9,N
1584346135.9,286046996.7,N
1584346155.7,286046995.9,N
1584346175.5,286046994.4,N
1584346195.4,286046995.9,N
1584346215.2,286046995.6,N
1584346235.0,286046992.1,Y
1584346236.0,286046992.1,P
1584346255.8,286046998.2,N
1584346275.6,286046992.0,P
1584346295.5,286046992.3,Y
1584346315.3,286046999.2,P
1584346335.1,286047002.0,N
1584346355.9,286046999.4,N
1584346375.7,286046995.7,N
1584346395.6,286046995.8,N
1584346415.4,286046994.4,N
1584346435.2,286046997.7,N
1584346455.1,286046990.2,Y
1584346456.0,286046990.2,P
1584346475.8,286046994.8,N
1584346495.6,286046989.4,P
1584346515.5,286046984.6,Y
1584346535.3,286046989.9,P
1584346555.2,286046986.3,P
1584346575.9,286046982.8,P
1584346595.7,286046983.9,Y
1584346615.6,286046993.5,P
1584346635.4,286046991.0,P
1584346655.3,286046988.0,P
1584346675.1,286046986.3,Y
1584346695.8,286046996.3,P
1584346715.7,286047000.7,N
1584346735.5,286046997.6,N
1584346755.4,286046992.3,N
1584346775.2,286046994.6,N
1584346795.0,286046991.7,N
1584346795.9,286046991.7,N
1584346815.8,286046990.6,N
1584346835.6,286046993.1,N
1584346855.5,286046986.7,Y
1584346875.3,286046988.9,P
1584346895.1,286046988.4,P
1584346915.9,286046984.0,P
1584346935.7,286046984.6,Y
1584346955.5,286046993.3,P
1584346975.4,286046992.6,P
1584346995.2,286046989.8,P
1584347015.1,286046989.6,Y
1584347016.0,286046989.6,P
1584347035.8,286046996.6,P
1584347055.6,286047000.7,N
1584347075.5,286047002.6,N
1584347095.3,286046999.4,N
1584347115.2,286046996.2,N
1584347135.9,286046990.3,N
1584347155.7,286046994.0,N
1584347175.6,286046991.3,N
1584347195.4,286046990.4,N
1584347215.3,286046990.9,N
1584347235.1,286046989.6,N
1584347236.0,286046989.6,N
1584347255.8,286046988.0,N
1584347275.7,286046984.1,Y
1584347295.5,286046989.1,P
1584347315.3,286046988.5,P
1584347335.2,286046988.9,P
1584347355.0,286046989.3,Y
1584347355.9,286046989.3,P
1584347375.8,286046999.8,N
1584347395.6,286046998.4,N
1584347415.4,286046998.9,N
1584347435.3,286046995.9,N
1584347455.1,286046995.8,N
1584347475.9,286046994.4,N
1584347495.7,286046988.8,Y
1584347515.5,286046994.9,P
1584347535.4,286046998.7,P
1584347555.2,286046996.3,N
1584347575.0,286046991.9,Y
1584347576.0,286046991.9,P
1584347595.8,286046992.1,P
1584347615.6,286046990.4,P
1584347635.5,286046990.4,Y
1584347655.3,286046999.5,P
1584347675.1,286046997.2,N
1584347695.9,286046997.8,N
1584347715.7,286046993.3,N
1584347735.6,286046991.7,Y
1584347755.4,286046993.4,P
1584347775.2,286046990.9,P
1584347795.1,286046987.9,P
1584347796.0,286046987.9,Y
1584347815.8,286046996.2,P
1584347835.6,286046996.4,N
1584347855.5,286046994.3,N
1584347875.3,286046990.6,Y
1584347895.2,286046995.0,P
1584347915.9,286046995.7,P
1584347935.7,286046993.3,P
1584347955.6,286046995.4,Y
1584347975.4,286046999.0,P
1584347995.3,286046997.6,N
1584348015.1,286046996.0,N
1584348016.0,286046996.0,N
1584348035.8,286046993.9,Y
1584348055.7,286046995.1,P
1584348075.5,286046994.6,P
1584348095.3,286046992.2,P
1584348115.2,286046994.6,Y
1584348135.0,286047000.8,P
1584348135.9,286047000.8,N
1584348155.8,286047000.2,N
1584348175.6,286047001.3,N
1584348195.4,286047000.7,N
1584348215.3,286047002.6,N
1584348235.1,286046999.7,N
1584348255.9,286046998.6,N
1584348275.7,286046997.2,N
1584348295.5,286046996.5,N
1584348315.4,286046996.0,N
1584348335.2,286046994.4,N
1584348355.1,286046992.6,N
1584348356.0,286046992.6,N
1584348375.8,286046989.6,Y
1584348395.6,286046987.1,P
1584348415.5,286046984.4,N
1584348435.3,286046980.8,P
1584348455.1,286046980.2,Y
1584348475.9,286046991.0,P
1584348495.7,286046989.3,P
1584348515.6,286046991.2,P
1584348535.4,286046989.4,Y
1584348555.2,286047000.3,P
1584348575.1,286047000.4,N
1584348576.0,286047000.4,N
1584348595.8,286046998.2,N
1584348615.7,286046995.0,N
1584348635.5,286046995.9,N
1584348655.3,286046995.3,N
1584348675.2,286046992.9,N
1584348695.0,286046988.5,Y
1584348695.9,286046988.5,P
1584348715.7,286046991.7,N
1584348735.6,286046994.5,N
1584348755.4,286046994.2,N
1584348775.3,286046988.5,Y
1584348795.1,286046993.8,P
1584348815.8,286046997.3,P
1584348835.7,286046999.6,N
1584348855.5,286046993.5,N
1584348875.4,286046992.3,Y
1584348895.2,286046999.1,P
1584348915.0,286046998.3,N
1584348915.9,286046998.3,N
1584348935.8,286046999.1,N
1584348955.6,286046997.6,N
1584348975.4,286046998.0,N
1584348995.3,286046993.9,Y
1584349015.1,286046994.8,P
1584349035.9,286046990.7,P
1584349055.7,286046989.8,P
1584349075.5,286046985.3,Y
1584349095.4,286046989.0,P
1584349115.2,286046987.4,P
1584349135.1,286046985.4,P
1584349136.0,286046985.4,Y
1584349155.8,286046998.9,P
1584349175.6,286046997.0,N
1584349195.5,286046996.3,N
